SKCUBE (42789 NORAD) Tracking and Keplerian Element Data

This shows tracking and keplerian element data for the satellite.

Feedback or suggestion? Click here.




ElementValue
Catalog42789
NameSKCUBE
Epoch Orbit34414
Epoch Day239.08425866
Epoch Year2023
RAAN278.7248
Inclination97.1359
Eccentricity0.0007372
Argument of Perigee167.8721
Mean Anonmoly192.2716
Mean Motion15.62179638
Decay Rate0.00091952
L11 42789U 17036AA 23239.08425866 .00091952 00000+0 10374-2 0 9997
L22 42789 97.1359 278.7248 0007372 167.8721 192.2716 15.62179638344147



Live tracking and technical data element details for SKCUBE (NORAD 42789). SKCUBE can be tracked NOW for your location showing map with azimuth and elevation plus other details from your city location.







IsCatalogInMostPopularTable: catalog: 42789, numindb: 600
Update: records affected: 1



GetName: 42789 SKCUBE

Hit Count: updated at: Thu, 23 Jan 2025 16:32:14 GMT